Regional Weather Roundup
Issued by NWS

Home | Current Version | Previous Version | Text Only | Print | Product List | Glossary Off
Versions: 1 2 3 4 5 6 7 8 9 10 11 12 13 14 15 16 17 18 19 20 21 22 23 24 25 26 27 28 29 30 31 32 33 34 35 36 37 38 39 40 41 42 43 44 45 46 47 48 49 50

000
ASUS43 KFSD 230810
RWRSD

WEATHER ROUNDUP FOR SOUTH DAKOTA
NATIONAL WEATHER SERVICE SIOUX FALLS SD
200 AM CST SUN NOV 23 2014

NOTE: "FAIR" INDICATES FEW OR NO CLOUDS BELOW 12,000 FEET WITH NO
SIGNIFICANT WEATHER AND/OR OBSTRUCTIONS TO VISIBILITY.


SDZ001>005-009-010-012>017-230900-
NORTHWEST AND NORTH CENTRAL SOUTH DAKOTA

CITY           SKY/WX    TMP DP  RH WIND       PRES   REMARKS
BUFFALO          N/A     37  25  61 W23       29.45R
FAITH            N/A     38  33  82 NW9       29.50R
MOBRIDGE       LGT RAIN  40  38  93 NW8       29.43R
$$

SDZ012>016-024>037-041>051-057-063-072>074-230900-
SOUTHWEST AND SOUTH CENTRAL SOUTH DAKOTA

CITY           SKY/WX    TMP DP  RH WIND       PRES   REMARKS
RAPID CTY ARPT CLOUDY    42  22  44 NW24      29.53S
PIERRE         CLOUDY    39  36  89 NW15      29.45R
CUSTER         MOCLDY    32  16  51 NW12G20   29.52F WCI  23
ELLSWORTH AFB  CLOUDY    41  23  48 N23G31    29.52R
PHILIP         CLOUDY    43  34  70 NW15      29.50S
PINE RIDGE     CLOUDY    39  33  79 W9        29.57R
SPEARFISH      FAIR      36  21  55 W22G30    29.57R
WINNER         FAIR      43  36  76 SW8       29.40F
$$

SDZ004>011-016>023-039-040-230900-
NORTHEAST SOUTH DAKOTA

CITY           SKY/WX    TMP DP  RH WIND       PRES   REMARKS
ABERDEEN       CLOUDY    35  32  88 W7        29.42S WCI  29
WATERTOWN      CLOUDY    35  31  85 SW7       29.40F WCI  29
SISSETON         N/A     40  32  73 SW10      29.38R
$$

SDZ017-020-022-023-036>040-048>070-230900-
SOUTHEAST SOUTH DAKOTA

CITY           SKY/WX    TMP DP  RH WIND       PRES   REMARKS
SIOUX FALLS    CLOUDY    42  39  89 S8        29.41F
HURON          CLOUDY    35  31  85 E5        29.40F
CHAMBERLAIN    CLOUDY    39  32  77 N3        29.39F
MITCHELL       CLOUDY    39  33  79 SE3       29.40F
YANKTON        CLOUDY    45  37  76 SE9       29.40F
$$

ABBREVIATIONS USED IN REMARKS
   TC - TEMPERATURE IN CELSIUS
  WCI - WIND CHILL INDEX
   HX - HEAT INDEX
  VSB - VISIBILITY




USA.gov is the U.S. government's official web portal to all federal, state and local government web resources and services.